Home > Weather > Giessen > Past weeks

Flag for Germany Weather for the Past 2 Weeks in Giessen, Hesse, Germany

Now
45 °F

Clear.


Feels Like: 43 °F
Forecast: 36 / 59 °F
Wind: 3 mph from South

Location: Frankfurt-M-Flughafen Airport

Current Time: Apr 30, 2016 at 12:16:44 AM

Latest Report: Apr 29, 2016 at 11:20 PM


Visibility: 10 mi

Pressure: 30.04 "Hg

Humidity: 61%

Dew Point: 32 °F

Location of GiessenLocation

Historic Weather in Giessen — Graph

°F

Giessen Temperature Yesterday

Maximum temperature yesterday: 57 °F (at 6:20 PM)
Minimum temperature yesterday: 30 °F (at 3:50 AM)
Average temperature yesterday: 45 °F

High & Low Weather Summary for the Past Weeks

 TemperatureHumidityPressure
High70 °F (Apr 21, 4:50 PM)100% (Apr 16, 8:20 AM)30.45 "Hg (Apr 16, 8:20 AM)
Low30 °F (Apr 24, 4:50 AM)22% (Apr 20, 5:50 PM)29.56 "Hg (Apr 26, 12:20 AM)
Average47 °F65%29.95 "Hg
* Reported Apr 14 10:20 PM — Apr 29 10:50 PM, Giessen, Weather by CustomWeather, © 2016

Note: Actual official high and low records may vary slightly from our data, if they occured in-between our weather recording intervals... More about our weather records

Advertising

Giessen Weather History for the Previous 24 Hours

Scroll right to see more
 ConditionsComfort  
Time TempWeatherWind HumidityBarometerVisibility
10:50 PM
Fri, Apr 29
46 °FClear.2 mph57%30.04 "Hg10 mi
10:20 PM46 °FClear.6 mph57%30.04 "Hg10 mi
9:50 PM50 °FPassing clouds.7 mph47%30.04 "HgN/A
9:20 PM50 °FSunny.7 mph50%30.04 "Hg10 mi
8:50 PM50 °FSunny.6 mph50%30.04 "Hg10 mi
8:20 PM52 °FSunny.6 mph44%30.04 "Hg10 mi
7:50 PM54 °FSunny.9 mph38%30.04 "Hg10 mi
7:20 PM55 °FSunny.12 mph36%30.01 "Hg10 mi
6:50 PM57 °FPassing clouds.10 mph33%30.01 "HgN/A
6:20 PM57 °FPassing clouds.13 mph33%30.04 "HgN/A
5:50 PM55 °FPassing clouds.10 mph36%30.04 "HgN/A
5:20 PM55 °FPassing clouds.14 mph36%30.04 "HgN/A
4:50 PM55 °FPassing clouds.10 mph38%30.04 "HgN/A
4:20 PM55 °FPassing clouds.10 mph36%30.04 "HgN/A
3:50 PM55 °FPassing clouds.12 mph33%30.04 "HgN/A
3:20 PM55 °FSunny.10 mph36%30.04 "Hg10 mi
2:50 PM55 °FPassing clouds.13 mph36%30.04 "HgN/A
2:20 PM54 °FSunny.12 mph35%30.04 "Hg10 mi
1:50 PM54 °FPartly sunny.12 mph41%30.04 "HgN/A
1:20 PM54 °FPartly sunny.16 mph41%30.04 "HgN/A
12:50 PM52 °FPartly sunny.12 mph50%30.04 "HgN/A
12:20 PM52 °FBroken clouds.8 mph50%30.04 "HgN/A
11:50 AM50 °FPartly sunny.8 mph58%30.07 "HgN/A
11:20 AM52 °FPartly sunny.9 mph54%30.07 "HgN/A
10:50 AM50 °FScattered clouds.7 mph58%30.07 "HgN/A
10:20 AM48 °FPartly sunny.6 mph62%30.07 "HgN/A
9:50 AM45 °FPartly sunny.7 mph71%30.07 "HgN/A
9:20 AM45 °FSunny.7 mph76%30.07 "Hg10 mi
8:50 AM43 °FPassing clouds.8 mph76%30.07 "HgN/A
8:20 AM41 °FSunny.7 mph76%30.07 "Hg10 mi
7:50 AM39 °FFog.2 mph81%30.04 "HgN/A
7:20 AM34 °FFog.1 mph93%30.04 "HgN/A
6:50 AM30 °FFog.2 mph93%30.04 "HgN/A
6:20 AM30 °FFog.1 mph93%30.04 "HgN/A
5:50 AM30 °FFog.2 mph93%30.04 "HgN/A
5:20 AM30 °FFog.1 mph93%30.04 "HgN/A
4:20 AM30 °FFog.1 mph93%30.04 "HgN/A
3:50 AM30 °FFog.2 mph93%30.04 "HgN/A
3:20 AM32 °FFog.2 mph93%30.04 "HgN/A
2:50 AM32 °FFog.1 mph93%30.04 "HgN/A
2:20 AM32 °FFog.2 mph93%30.04 "HgN/A
1:50 AM34 °FFog.1 mph93%30.04 "HgN/A
1:20 AM34 °FFog.1 mph93%30.04 "HgN/A
12:50 AM34 °FClear.2 mph93%30.04 "Hg10 mi
12:20 AM34 °FClear.3 mph93%30.04 "Hg10 mi
Weather by CustomWeather, © 2016

See weather overviewHow to use our weather pages